Location: Unspecified
(0.0000°N, 0.0000°E)
Time: 20:56:26
(UTC+00:00)

SRMSAT - Visible Passes

Search period start: 25 September 2020 00:00
Search period end: 05 October 2020 00:00
Orbit: 848 x 865 km, 20.0° (Epoch: 25 September)

Date Brightness Start Highest point End Pass type
(mag) Time Alt. Az. Time Alt. Az. Time Alt. Az.
25 Sep ? 03:32:31 19° SSE 03:32:31 19° SSE 03:36:06 10° ESE visible
25 Sep ? 05:15:52 10° SW 05:21:31 45° SSE 05:27:12 10° E visible
25 Sep ? 19:53:28 10° W 19:58:46 37° SSW 19:58:46 37° SSW visible
26 Sep ? 03:20:34 19° SE 03:20:34 19° SE 03:23:27 10° ESE visible
26 Sep ? 05:02:46 10° SW 05:08:32 51° SSE 05:14:19 10° E visible
26 Sep ? 19:40:39 10° W 19:45:58 33° SSW 19:46:54 31° S visible
27 Sep ? 03:08:39 18° SE 03:08:39 18° SE 03:10:47 10° ESE visible
27 Sep ? 04:50:39 15° SW 04:55:32 59° SSE 05:01:24 10° E visible
27 Sep ? 19:27:52 10° WSW 19:33:00 29° SSW 19:35:03 24° SSE visible
28 Sep ? 02:56:46 15° ESE 02:56:46 15° ESE 02:58:04 10° ESE visible
28 Sep ? 04:38:46 23° WSW 04:42:33 68° SSE 04:48:28 10° ENE visible
28 Sep ? 19:15:07 10° WSW 19:20:02 26° SSW 19:23:10 17° SSE visible
29 Sep ? 02:44:54 12° ESE 02:44:54 12° ESE 02:45:19 10° ESE visible
29 Sep ? 04:26:55 34° WSW 04:29:33 77° SSE 04:35:30 10° ENE visible
29 Sep ? 19:02:24 10° WSW 19:07:06 24° SSW 19:11:17 12° SSE visible
30 Sep ? 04:15:04 53° WSW 04:16:34 88° SSE 04:22:31 10° ENE visible
30 Sep ? 18:49:42 10° WSW 18:54:09 21° SSW 18:58:37 10° SSE visible
01 Oct ? 04:03:13 77° WNW 04:03:34 81° NNW 04:09:30 10° ENE visible
01 Oct ? 18:37:03 10° WSW 18:41:15 19° SSW 18:45:25 10° SSE visible
02 Oct ? 03:51:21 62° NNE 03:51:21 62° NNE 03:56:29 10° ENE visible
02 Oct ? 18:24:25 10° SW 18:28:19 18° SSW 18:32:13 10° SSE visible
03 Oct ? 03:39:28 41° NE 03:39:28 41° NE 03:43:25 10° ENE visible
03 Oct ? 05:22:15 10° WNW 05:26:57 24° NNW 05:31:39 10° NE visible
03 Oct ? 18:11:50 10° SW 18:15:25 16° SSW 18:19:00 10° SSE visible
04 Oct ? 03:27:34 27° NE 03:27:34 27° NE 03:30:21 10° NE visible
04 Oct ? 05:09:34 10° WNW 05:14:00 22° NNW 05:18:27 10° NNE visible
